Theta_e
351 349 348 348 348 349 348 345 342 342 344 344 343 344 343 343 343 343 342 343 342 340 338 338 339 339 339 339 339 341 343 344 345 346 347 347 346 347 349 349 347 347 346 343 344 346 344 344 344 344 344 344 343 343 345 345 344 344 344 345 347 348 346
352 351 349 348 348 348 348 347 344 342 343 344 343 343 344 343 343 343 343 343 343 340 337 336 337 337 337 338 339 341 342 343 344 345 346 347 346 345 347 348 347 347 347 345 344 345 345 344 344 344 344 344 343 343 344 346 344 345 346 347 347 347 345
352 352 351 349 348 347 347 347 347 344 342 343 344 343 344 343 342 343 343 343 343 341 338 335 336 336 336 336 338 339 341 342 343 344 345 347 346 344 345 346 347 347 347 346 345 345 345 344 345 344 343 343 344 343 344 345 345 346 348 348 346 345 344
352 352 352 351 349 347 346 346 347 347 343 342 343 343 343 343 343 343 343 343 344 343 339 335 335 335 335 335 336 337 338 339 341 343 345 347 346 345 344 345 345 346 345 345 345 344 344 346 345 344 343 343 343 344 344 344 345 346 347 346 346 345 344
352 352 352 352 352 350 347 346 346 347 345 343 343 343 343 343 343 343 344 344 345 344 341 338 337 336 335 335 335 336 336 336 338 341 343 345 346 346 345 344 345 345 344 344 345 344 344 345 345 343 343 343 343 343 344 345 345 345 346 345 346 346 345
350 351 351 352 352 352 351 349 347 347 347 345 343 343 344 343 343 344 344 345 345 346 344 343 342 340 338 335 334 336 337 335 335 337 339 341 344 345 344 343 345 345 344 343 344 345 345 345 345 344 343 344 343 341 342 344 344 344 345 345 345 345 345
349 350 351 351 352 352 352 351 349 347 346 346 345 344 344 344 344 344 344 345 345 346 346 345 345 344 343 340 335 334 336 336 335 334 335 337 340 343 343 342 343 344 345 344 343 345 347 346 345 345 345 345 344 342 341 342 343 343 344 343 343 343 343
348 350 350 351 351 352 352 352 351 349 347 347 347 346 345 344 344 345 345 345 346 346 346 345 345 345 344 344 340 335 333 335 336 335 334 336 337 340 341 341 341 343 346 346 344 345 347 348 349 347 346 345 345 343 342 341 341 342 342 343 342 343 343
348 349 349 350 351 352 352 352 352 351 349 349 349 348 347 346 345 345 345 345 346 346 346 345 345 345 345 345 344 339 334 335 337 337 336 336 336 337 339 339 340 342 345 346 345 345 346 348 350 351 349 347 345 344 343 341 340 340 341 341 342 342 343
346 347 346 348 350 351 352 352 352 352 351 350 350 349 349 348 346 346 346 346 346 346 346 346 345 345 345 347 346 341 336 335 336 337 338 338 337 337 337 337 338 340 342 344 346 347 346 348 350 351 352 350 349 347 345 342 340 340 340 340 341 342 342
343 344 344 346 348 350 351 352 352 353 352 351 350 350 349 349 347 347 347 346 346 346 346 346 345 345 346 347 347 343 338 335 334 335 336 337 337 336 337 337 337 338 339 342 344 346 346 347 349 351 352 352 352 350 348 345 342 340 339 339 340 340 341
341 342 342 344 347 348 349 350 351 351 352 352 351 351 350 350 349 349 348 348 348 347 347 346 345 345 346 347 348 346 341 336 334 334 334 335 336 336 337 338 337 337 338 340 342 345 346 347 347 349 350 350 351 351 350 349 347 343 341 339 339 339 340
339 340 341 343 345 346 346 346 346 349 350 351 351 350 350 350 350 350 350 349 350 349 350 349 347 346 347 347 348 347 344 339 337 337 336 336 337 336 335 336 337 337 338 339 342 344 346 347 346 346 347 347 348 348 348 347 347 346 344 342 340 340 341
337 338 339 341 343 345 345 344 343 346 348 349 350 350 350 350 349 349 349 349 350 350 351 351 350 349 350 349 349 348 347 345 344 343 342 341 341 340 337 335 334 336 337 339 340 341 343 345 346 346 345 344 344 344 345 345 344 344 343 342 341 341 341
334 336 338 340 342 344 345 343 343 346 347 348 350 351 351 351 350 350 350 349 349 349 349 349 350 350 350 349 349 349 348 349 349 348 347 346 345 346 345 341 336 335 338 340 342 342 342 343 344 346 346 345 344 343 343 345 345 345 344 342 341 340 339
332 333 335 337 339 342 343 342 343 345 346 347 348 349 349 350 350 350 350 350 350 350 350 349 348 348 348 349 350 351 351 351 351 351 351 350 349 349 350 348 343 339 339 342 344 345 345 344 344 345 346 347 347 345 343 344 345 346 345 344 343 342 341
331 332 332 333 334 337 339 340 340 342 344 345 347 348 349 349 349 350 350 350 350 351 351 351 350 349 350 351 352 354 354 354 353 352 353 353 352 350 351 351 350 347 344 344 345 347 348 347 345 345 345 347 347 347 346 344 344 345 345 345 345 344 344
329 329 330 331 332 334 336 337 337 338 340 342 343 346 348 349 349 349 350 350 350 350 350 351 351 350 351 351 352 353 354 355 354 353 353 353 352 351 351 352 353 353 351 348 346 347 349 348 347 346 346 346 347 348 347 346 345 345 345 346 346 346 345
326 327 328 330 331 332 334 336 338 339 340 340 341 342 344 347 348 348 348 349 349 349 349 350 350 350 350 350 350 350 352 353 352 352 352 352 352 352 352 352 353 353 353 352 351 350 350 350 348 347 347 347 347 347 347 347 346 345 345 345 346 346 346
325 325 325 327 328 330 332 334 337 338 338 338 339 339 339 341 343 344 345 345 346 347 347 347 348 348 349 349 350 350 351 351 351 351 351 352 352 352 352 352 352 352 352 352 352 352 352 351 348 347 347 348 347 347 347 347 347 347 346 345 345 345 346
324 323 323 324 326 327 328 329 330 333 333 332 331 331 333 335 339 340 341 341 343 343 343 344 344 345 345 346 348 349 350 350 351 352 352 352 352 352 352 351 351 351 351 350 350 350 350 350 348 347 347 348 347 347 347 348 348 348 347 346 345 345 345
323 323 323 323 323 325 326 325 325 328 331 330 327 325 326 329 333 337 339 339 339 339 339 341 342 342 342 344 345 345 345 346 348 349 350 351 352 351 351 351 351 351 351 351 351 351 351 350 349 347 347 347 347 347 348 348 348 348 348 347 346 345 345
323 323 323 323 323 323 323 323 324 326 328 331 330 326 324 324 326 330 334 336 337 337 338 340 340 339 339 340 341 341 342 343 344 345 346 347 349 349 348 349 350 350 351 351 351 351 351 351 351 350 349 349 349 349 348 348 349 348 349 348 348 348 347
323 323 322 322 323 323 323 323 323 324 326 329 330 328 325 324 322 322 324 326 326 328 330 334 337 337 335 335 335 335 338 341 342 342 343 343 344 345 345 345 346 347 348 349 350 349 349 349 350 350 351 351 351 351 350 349 348 348 348 348 348 348 348
322 322 322 322 322 322 323 323 323 323 324 326 327 327 326 325 323 320 318 317 316 316 317 321 326 329 330 329 329 328 330 334 335 334 334 336 339 340 341 342 343 345 345 346 347 347 347 347 348 349 349 350 350 351 350 350 349 349 349 349 349 349 348
322 322 322 322 321 321 322 322 322 322 322 322 323 324 323 324 323 320 317 316 316 314 314 314 315 318 320 321 323 323 323 325 326 325 324 327 330 332 333 335 337 340 343 344 344 344 344 345 346 347 347 347 348 349 349 350 349 349 349 349 349 349 349
321 322 321 321 321 321 321 321 321 321 321 321 321 321 320 320 320 318 316 315 315 315 314 313 313 313 314 315 317 318 317 318 318 318 318 321 324 325 327 328 329 332 335 337 339 341 343 343 342 343 344 346 348 348 348 348 349 350 350 350 350 350 350
320 320 320 320 320 320 320 319 319 318 317 317 318 318 318 317 316 315 314 313 313 314 313 312 312 313 313 314 313 313 313 313 314 314 315 317 319 321 323 324 325 327 328 328 329 333 336 337 336 336 338 341 344 346 347 347 348 349 349 349 349 349 349
319 319 319 319 319 319 318 317 316 315 315 316 316 316 315 314 314 313 312 312 312 312 311 311 311 312 313 313 312 311 311 312 312 313 314 314 315 316 317 318 320 321 321 321 324 329 334 336 335 335 335 336 338 342 343 344 346 346 346 346 346 347 348
319 318 318 318 318 318 317 316 314 314 315 315 315 315 314 314 313 312 312 312 311 310 309 309 309 310 311 310 310 310 310 311 312 312 313 313 313 313 314 315 317 318 319 320 323 328 334 338 339 341 341 341 341 341 342 342 344 344 342 340 341 343 345
318 318 318 318 317 317 316 315 313 313 314 314 314 314 313 312 310 309 309 309 310 309 308 308 308 309 309 309 308 309 310 311 312 313 314 315 316 316 317 318 320 322 324 325 325 326 331 337 341 343 344 343 342 341 342 342 343 342 340 338 335 332 330
318 318 318 317 317 316 315 314 312 312 314 315 313 312 311 309 307 306 306 307 307 308 307 307 307 308 308 307 307 308 308 310 311 313 315 317 318 319 319 320 321 323 326 328 329 329 332 337 341 342 342 341 340 340 340 338 338 339 339 337 332 325 319
318 318 317 317 316 315 314 312 311 311 313 313 311 309 308 307 306 306 306 305 306 306 306 306 306 306 306 306 306 307 307 308 309 311 313 316 317 319 320 321 321 322 324 326 329 331 333 335 337 338 339 340 339 339 338 336 336 336 336 334 329 322 318
318 317 317 316 315 313 311 310 310 310 310 310 309 308 308 308 307 308 308 308 307 307 307 307 307 306 306 306 306 306 306 307 307 308 310 312 315 317 319 320 321 322 322 323 325 327 330 331 332 333 334 335 336 337 337 336 335 335 333 331 327 322 317
318 317 317 315 314 312 310 309 309 309 309 309 310 310 310 310 309 310 310 310 310 309 308 308 307 306 306 306 305 305 306 306 306 306 307 308 310 312 314 315 317 318 319 319 320 321 323 325 326 328 328 329 329 330 331 331 330 329 327 324 321 318 316
318 317 316 315 313 311 310 310 309 309 309 310 311 311 310 310 309 309 309 309 309 309 308 308 306 305 305 306 305 305 305 305 305 305 306 306 306 307 308 309 310 312 312 313 314 314 315 316 317 319 321 323 323 323 324 324 324 322 320 318 315 316 317
317 316 315 313 311 310 310 310 309 308 309 311 311 311 310 309 308 308 309 309 309 309 309 309 308 307 307 307 307 307 306 306 306 305 305 305 305 305 305 305 307 308 309 309 309 309 309 310 310 311 312 314 315 316 316 316 316 315 314 313 312 313 315
316 314 313 311 310 310 310 309 309 309 310 311 311 311 310 309 309 309 310 311 311 311 311 311 310 310 309 308 308 307 307 307 307 307 307 306 306 306 305 305 305 307 308 308 308 308 308 308 309 309 309 309 309 309 309 309 310 310 310 310 311 312 313
Wind_Speed
27 30 32 28 22 22 22 23 30 37 39 40 39 37 35 32 29 27 25 22 21 22 24 23 23 25 27 27 26 24 23 22 20 19 17 15 14 13 12 11 11 11 11 9 9 9 9 10 11 11 11 11 11 11 11 12 12 12 11 10 10 10 10
24 24 28 33 31 29 26 22 24 32 37 39 39 38 36 34 31 28 26 23 21 21 23 24 24 25 27 27 26 25 24 23 22 20 19 17 15 14 13 11 11 11 10 9 8 9 9 11 11 11 11 11 11 11 11 12 12 11 10 10 10 9 9
21 22 28 36 39 36 33 26 22 26 34 38 39 39 38 35 32 28 25 23 21 20 22 24 24 24 25 26 26 25 24 24 23 22 21 18 16 15 13 12 11 11 11 10 9 10 10 11 11 10 10 10 11 11 11 11 11 11 10 10 10 8 8
23 25 26 30 36 39 39 35 27 23 30 37 39 39 38 36 32 29 25 22 20 19 21 23 23 23 24 25 26 25 25 24 24 24 23 20 18 16 14 13 13 12 12 11 11 11 11 11 11 10 10 10 10 11 10 11 11 10 10 10 9 8 8
20 21 21 21 26 32 36 39 36 30 28 32 37 39 38 36 33 30 27 23 20 18 18 20 21 22 24 25 25 24 24 24 23 23 23 22 20 19 17 15 14 14 13 12 12 12 12 11 11 11 11 11 10 10 10 10 10 10 9 9 9 9 8
12 13 15 15 17 21 27 32 36 35 28 28 34 37 38 37 35 32 29 27 24 22 20 20 20 21 22 24 25 24 23 22 23 23 23 23 22 21 19 17 15 15 13 12 12 12 12 12 11 11 11 11 11 10 9 10 10 9 9 9 9 9 8
9 9 10 11 13 15 20 24 30 34 32 28 30 35 38 39 37 35 33 31 30 27 25 25 24 23 22 23 24 25 23 22 22 23 22 22 23 23 21 19 17 16 14 13 13 13 13 13 12 12 11 11 11 10 10 10 10 10 10 9 9 8 8
9 9 8 9 12 14 17 19 23 30 34 31 29 32 36 38 39 38 36 34 32 30 28 27 27 26 25 24 24 25 24 22 22 23 22 22 23 23 22 20 19 17 15 14 14 14 14 13 13 13 12 11 12 11 11 11 11 11 11 10 9 9 9
10 8 7 8 10 12 15 18 20 25 30 31 29 29 31 35 38 38 37 36 34 32 29 27 26 27 25 24 25 25 25 23 22 22 22 22 22 22 22 21 20 18 17 16 14 14 15 14 13 13 13 12 12 13 13 12 12 12 11 11 10 10 9
11 10 7 6 7 10 14 18 20 21 25 30 31 30 29 31 35 37 38 38 36 33 30 27 26 27 26 24 24 25 25 24 23 23 23 23 22 22 21 21 20 20 19 18 16 15 15 15 14 14 14 14 14 13 13 13 13 13 12 12 12 11 10
12 11 8 6 5 7 11 16 19 20 23 30 34 34 32 30 31 33 35 36 35 33 33 30 27 27 27 25 24 24 25 25 24 24 24 24 23 22 21 20 20 20 19 18 17 16 15 15 15 14 15 15 15 15 14 13 13 13 13 13 13 12 11
12 12 11 9 6 3 5 12 17 18 20 26 29 31 31 30 28 29 31 31 30 30 33 32 29 28 28 26 24 24 24 25 25 24 24 24 23 22 21 20 20 19 18 18 17 15 14 14 15 16 16 16 16 15 15 14 14 14 14 14 14 14 13
13 14 14 12 8 4 2 6 10 13 17 21 24 26 29 32 33 33 32 30 27 26 29 32 31 30 29 26 25 25 24 24 24 24 23 23 22 21 21 21 21 20 19 18 16 15 14 14 14 15 16 16 16 15 15 15 14 14 15 15 15 15 15
15 16 15 13 11 7 4 3 3 7 12 15 20 25 30 33 36 37 35 32 29 28 28 28 30 31 30 27 27 26 25 25 24 24 23 22 21 20 20 21 22 21 20 19 18 16 15 15 14 14 15 16 16 15 14 14 14 13 14 14 15 15 15
17 16 15 14 12 10 8 5 7 7 8 12 18 22 25 27 30 32 31 31 31 31 31 30 31 32 31 30 30 28 26 26 26 25 24 23 22 21 20 20 21 22 21 20 19 18 17 16 15 15 15 16 16 16 15 14 14 13 12 12 13 14 14
17 16 16 15 13 12 11 9 11 12 10 10 16 18 18 20 22 23 24 24 26 28 28 29 31 32 31 31 32 31 30 29 28 27 25 24 23 22 21 21 21 21 22 22 21 20 19 18 17 17 16 17 17 18 18 17 16 14 13 13 12 13 13
17 17 17 16 14 13 12 10 10 11 10 9 11 14 16 17 19 20 20 21 23 24 23 25 29 31 31 31 31 31 32 31 29 28 27 25 24 23 22 21 20 21 22 23 23 22 21 21 20 19 19 18 19 20 20 20 18 17 16 15 15 15 15
16 17 18 18 17 15 13 11 9 10 10 10 10 12 13 14 16 17 18 19 18 18 19 21 24 26 26 27 27 29 31 30 29 28 27 25 24 23 22 22 21 20 21 23 24 24 24 23 23 22 21 21 21 22 22 22 21 20 19 18 18 19 19
17 16 18 19 19 18 17 15 13 13 12 11 11 11 11 11 11 12 14 16 14 14 16 18 19 20 21 20 20 22 25 27 26 25 25 25 24 23 23 22 22 22 22 23 24 24 25 25 25 23 23 23 23 23 23 23 22 22 22 22 21 21 22
18 17 17 18 18 18 19 18 16 15 14 13 12 10 9 8 8 7 8 10 11 11 13 13 15 15 16 16 16 16 18 19 19 20 21 22 23 24 25 25 25 25 25 25 25 26 27 28 26 24 22 22 22 22 23 24 24 24 24 24 23 22 23
18 19 19 18 19 18 18 17 16 15 16 16 15 13 12 11 9 7 6 6 7 8 8 7 8 9 10 12 13 14 15 15 16 17 18 18 19 20 22 23 24 24 24 24 24 25 26 27 27 25 23 22 22 22 23 23 24 25 26 26 24 23 23
20 20 20 19 19 18 17 16 15 15 15 16 16 16 15 14 12 11 10 10 10 10 9 7 6 6 7 9 9 8 10 11 13 14 15 16 16 16 17 18 18 19 19 19 18 18 19 22 25 26 26 25 23 22 22 23 23 23 24 25 25 24 24
21 20 19 19 19 19 18 16 15 14 13 14 14 15 15 14 13 13 12 11 10 10 10 10 9 9 8 7 6 5 5 5 6 8 10 11 13 12 12 13 14 15 16 16 15 13 13 16 19 21 23 23 22 22 22 22 22 22 22 22 22 23 23
21 21 20 19 19 19 19 17 15 14 13 13 13 12 11 11 11 12 12 12 11 10 9 9 9 9 9 8 6 4 4 4 4 5 7 8 9 8 8 9 10 12 13 15 16 15 14 14 16 18 18 18 19 22 23 23 23 23 23 22 22 22 23
21 22 20 18 18 18 18 16 15 13 12 12 12 11 8 6 7 8 10 10 10 9 9 10 8 7 7 7 6 5 5 5 4 4 5 6 7 5 5 6 7 8 10 13 15 16 14 13 16 19 18 15 17 21 24 24 24 23 22 22 22 23 24
22 21 20 18 17 16 15 14 13 12 10 10 11 9 6 3 2 2 4 5 5 6 8 8 7 6 6 5 5 4 4 5 5 4 5 4 4 3 2 2 3 4 7 10 12 13 14 13 15 18 18 16 16 19 20 22 23 23 23 23 23 23 24
21 19 18 16 15 14 12 11 10 10 9 9 8 6 4 3 3 2 2 1 1 2 5 6 5 5 5 4 4 4 4 4 4 4 5 5 4 3 2 2 1 1 3 4 6 9 13 14 14 15 17 16 14 14 16 18 20 20 22 25 25 24 23
20 19 16 15 13 12 10 9 7 7 7 7 7 6 5 4 4 4 4 3 3 3 2 2 3 4 5 5 5 4 4 4 4 4 4 5 4 4 3 3 3 3 3 3 2 3 5 9 10 10 13 14 14 14 17 19 18 18 19 20 21 22 21
19 18 17 15 13 11 9 7 6 6 6 6 6 5 5 5 4 4 5 5 5 4 3 2 3 3 3 4 4 5 5 5 5 5 5 5 5 5 5 4 3 4 5 5 6 7 6 6 5 4 5 7 9 13 16 16 15 16 17 17 17 19 20
19 18 17 15 13 11 9 7 6 7 7 6 6 6 5 5 5 5 5 5 5 5 4 3 3 3 3 4 4 4 4 5 5 6 6 6 6 6 5 4 4 4 5 6 8 8 7 6 5 4 3 3 5 8 11 10 10 11 12 11 11 12 13
19 17 15 13 12 11 8 7 7 8 8 8 7 7 7 6 6 6 6 6 6 5 4 4 3 3 4 5 5 4 5 5 5 5 6 6 6 6 5 5 5 5 5 6 7 9 9 8 8 8 8 7 7 7 7 7 9 9 9 8 8 7 8
17 14 12 11 10 9 9 8 8 9 9 9 9 8 8 8 8 7 7 7 7 7 7 6 5 4 4 5 5 6 6 6 6 6 6 6 6 6 5 5 5 5 5 5 6 8 10 10 10 10 11 10 10 10 8 8 8 9 10 11 11 11 12
15 13 11 9 9 8 7 8 9 10 9 9 8 8 9 9 9 9 9 9 9 9 9 8 7 7 6 6 7 7 7 8 8 8 8 8 8 8 7 7 7 7 6 6 7 7 9 9 10 11 12 12 12 13 12 12 11 12 13 13 14 15 16
15 13 10 9 8 7 7 8 9 9 8 8 8 8 9 10 10 11 11 11 12 12 11 11 10 9 9 9 9 9 9 9 10 10 10 10 10 10 10 9 9 9 9 9 9 9 9 10 10 11 12 13 14 16 16 16 15 16 16 18 18 19 20
14 12 10 8 6 7 7 7 7 6 6 6 6 6 7 8 9 11 11 12 13 13 13 12 12 11 11 11 10 10 11 11 11 11 11 11 11 10 10 10 11 10 10 10 10 11 12 12 13 14 15 15 16 17 19 19 19 19 19 20 21 22 23
14 12 10 9 9 8 8 7 6 5 5 5 5 4 4 5 7 9 10 11 11 12 12 12 11 11 11 11 11 11 11 11 12 12 12 12 12 11 10 10 11 11 11 11 11 11 12 13 14 16 18 18 19 19 20 21 22 22 23 23 23 23 23
14 11 10 10 11 10 8 7 7 7 6 6 5 5 6 5 5 6 7 8 9 10 10 10 10 10 10 10 11 11 12 12 12 12 13 13 13 13 12 12 11 11 12 13 13 13 13 14 15 16 18 20 22 22 23 24 25 25 25 25 25 24 25
12 11 11 11 12 10 9 8 8 8 8 7 6 7 7 5 5 6 6 7 7 8 9 10 11 11 11 12 12 12 12 12 13 13 13 14 14 14 14 14 13 13 12 12 13 14 15 14 15 15 16 18 20 22 24 24 24 25 24 24 23 24 25
Wind_Direction
199 199 202 210 217 209 198 195 201 204 202 203 206 207 208 210 211 212 214 217 221 222 220 219 217 216 216 217 217 218 218 220 220 220 218 216 215 215 214 215 214 210 209 207 207 208 209 210 210 210 210 210 210 211 212 215 219 224 229 234 239 243 241
196 195 200 207 217 219 210 199 200 205 206 207 207 208 210 211 213 213 215 219 222 222 220 220 219 217 218 219 218 218 218 221 223 223 222 218 215 215 214 217 216 210 210 207 204 207 208 211 214 212 213 211 209 212 216 218 221 223 229 237 242 247 248
191 196 200 206 212 217 216 210 204 204 208 210 210 210 211 214 216 216 218 220 221 221 219 220 220 219 220 221 221 221 221 222 224 225 226 224 221 220 217 218 217 212 211 208 206 208 207 211 213 213 217 216 212 214 218 221 221 223 232 238 241 244 245
191 200 205 209 212 215 215 214 213 207 209 212 213 213 214 217 218 218 221 222 220 219 216 217 220 221 221 222 222 223 223 223 224 225 228 229 228 228 225 224 222 217 212 208 208 209 208 211 210 209 215 218 218 217 217 218 219 223 231 237 241 242 238
186 191 196 203 209 215 216 217 218 215 210 212 214 215 216 218 219 219 222 224 223 224 218 215 218 221 223 225 225 225 224 224 224 225 228 229 230 231 230 229 230 226 219 212 211 212 213 213 210 210 214 217 220 221 217 217 219 223 228 232 240 242 235
173 177 188 192 195 205 213 218 220 218 212 210 213 216 216 217 219 220 222 223 223 224 222 218 219 223 225 227 227 226 224 223 224 224 227 227 227 230 231 233 235 234 230 223 218 218 219 220 218 217 218 217 218 222 224 223 222 225 226 228 236 238 233
144 156 177 191 193 197 206 214 216 216 214 212 212 215 215 216 218 219 220 221 222 222 222 220 221 224 227 229 229 228 225 223 223 223 225 226 226 229 232 236 238 237 236 232 226 223 223 225 225 224 223 219 217 221 228 229 228 228 226 227 233 237 237
135 147 157 181 197 202 205 210 211 213 215 215 215 216 215 216 217 218 220 222 223 224 224 222 222 224 227 230 231 230 226 223 222 223 225 226 227 229 232 236 239 240 240 237 230 226 226 225 227 229 228 224 223 225 227 231 235 234 232 232 235 240 243
128 141 150 173 194 204 210 212 211 211 212 213 216 218 217 216 217 219 223 225 224 225 225 226 226 226 227 229 231 231 228 225 222 222 224 227 229 231 233 235 239 241 242 241 237 232 230 227 227 232 233 231 230 229 229 233 237 239 241 241 240 243 247
117 121 135 162 189 210 219 218 213 211 212 211 212 215 214 213 215 219 224 227 226 226 225 226 229 229 229 231 229 227 227 226 224 222 223 226 229 232 233 234 237 240 242 243 242 239 235 233 233 237 240 241 237 235 235 236 237 240 244 246 245 245 248
113 112 115 125 159 205 225 227 220 215 216 215 212 211 210 209 212 216 222 227 227 226 225 225 227 228 229 232 231 226 225 225 224 223 223 224 226 229 231 233 235 237 239 241 242 241 239 239 240 242 246 248 247 246 245 244 243 243 243 246 249 248 248
110 109 105 106 118 162 229 229 219 211 213 217 216 214 212 212 212 213 219 224 224 225 227 226 227 227 227 230 232 229 226 225 225 225 224 224 225 226 228 229 231 233 234 236 237 238 240 243 244 245 249 252 255 257 256 255 255 253 249 247 246 246 246
109 108 105 107 107 102 192 210 206 198 197 204 210 214 216 217 218 217 219 222 223 225 227 226 226 228 228 230 234 233 227 224 225 226 226 226 226 226 226 226 227 229 229 229 230 232 236 240 244 248 252 255 257 261 264 264 262 261 260 256 251 247 244
111 111 110 111 109 116 150 149 151 179 185 188 197 209 216 218 220 222 224 227 226 226 229 229 227 228 229 231 234 234 229 225 226 226 225 225 225 226 227 226 226 227 228 227 228 231 234 237 242 249 255 258 259 260 263 266 265 264 264 264 261 259 255
111 114 114 116 117 127 141 114 83 109 157 186 197 206 213 215 218 222 225 229 229 229 233 234 230 227 229 232 234 233 231 229 229 229 228 225 223 224 228 229 229 229 229 229 230 232 235 238 241 245 250 257 260 260 259 259 262 265 268 270 271 271 269
109 112 114 116 120 127 127 110 94 96 113 164 186 193 201 208 212 215 217 222 225 227 227 225 223 224 228 232 233 232 232 233 232 231 230 227 225 226 229 231 231 231 232 234 235 238 242 244 244 244 247 251 256 259 258 256 257 260 264 269 272 274 275
107 111 110 109 113 121 124 121 115 106 99 116 153 173 186 197 203 205 207 212 216 218 217 213 215 219 226 232 235 232 231 232 233 232 230 229 228 229 228 228 230 232 235 236 237 241 246 249 250 248 248 250 252 255 257 256 256 256 259 263 266 269 272
108 109 107 104 104 110 121 129 125 120 115 111 127 154 171 183 193 199 204 208 209 208 210 210 212 216 223 230 234 231 227 228 230 229 229 228 228 227 226 227 230 233 236 238 239 241 245 250 253 253 252 253 254 255 256 256 257 257 258 260 262 265 268
111 113 111 107 104 101 106 113 113 116 122 122 125 140 153 165 177 187 194 198 194 185 186 193 200 208 216 222 226 228 226 226 228 229 230 230 229 228 228 230 233 234 235 237 239 240 243 248 252 255 256 257 259 261 260 260 260 261 262 261 261 264 267
118 121 120 115 111 105 102 104 107 110 111 113 120 126 127 138 160 175 181 185 187 183 177 170 172 185 199 204 207 212 215 218 222 224 227 228 228 229 229 230 232 233 234 237 238 240 243 245 248 251 253 255 258 260 261 261 261 262 263 264 264 264 267
125 124 123 121 117 112 108 105 105 106 104 103 107 110 105 105 120 132 127 132 156 174 181 179 172 172 177 183 190 198 203 204 204 208 214 217 221 227 228 227 228 230 231 234 237 240 242 243 245 246 247 249 251 253 256 258 259 260 262 264 265 263 263
131 129 125 123 119 116 115 111 106 104 105 104 101 100 100 98 100 107 107 109 118 120 119 139 162 164 166 176 184 190 194 195 196 201 207 212 215 221 223 222 222 222 223 226 228 233 238 241 243 244 246 248 250 252 251 251 251 253 256 259 261 262 262
132 135 132 128 123 119 117 112 105 102 105 110 107 98 94 94 96 103 106 106 107 105 104 114 124 124 131 149 162 164 163 169 189 202 207 212 216 221 226 226 222 219 219 220 221 224 232 240 243 246 247 247 246 247 245 243 243 244 246 250 253 256 258
130 135 134 130 127 125 124 121 114 108 107 110 111 106 98 94 94 102 105 100 95 97 100 107 114 114 113 116 117 127 147 161 193 210 207 210 216 220 227 232 233 232 230 229 228 229 234 240 243 246 250 249 245 243 243 241 242 244 246 247 249 251 253
134 136 135 131 130 131 133 133 128 122 117 113 113 116 116 106 95 100 106 102 96 96 97 102 111 117 117 114 105 101 122 143 156 169 182 202 213 215 223 236 243 245 243 242 242 239 239 244 245 245 249 250 246 245 247 247 247 250 253 254 255 255 256
142 143 143 140 138 138 141 144 144 142 138 129 126 129 136 142 124 98 101 101 102 107 105 105 112 119 118 121 120 113 115 127 141 144 142 157 180 189 214 248 253 247 245 247 249 247 248 253 251 248 251 251 248 248 251 251 251 252 254 257 259 261 263
147 148 149 147 146 146 150 155 157 159 160 154 151 157 172 197 234 261 263 240 176 145 121 112 119 131 135 142 150 147 141 144 160 164 154 150 155 159 154 139 136 203 231 243 247 250 254 256 254 252 251 248 245 247 251 253 253 253 254 255 255 257 262
154 155 157 155 153 154 160 167 173 178 179 176 179 192 208 231 251 256 251 247 238 220 180 141 148 161 166 172 179 182 181 182 187 186 176 168 166 172 179 172 160 151 149 150 150 173 222 238 244 249 247 243 244 250 254 255 256 257 259 260 258 258 262
163 163 165 165 165 167 173 183 196 204 204 199 203 214 224 239 253 255 250 247 241 238 239 224 204 194 189 195 200 196 193 197 202 207 209 201 194 200 206 203 192 180 173 167 159 151 157 183 211 237 251 249 250 250 250 251 252 253 256 260 262 262 264
169 169 168 169 172 176 182 195 206 212 217 221 227 236 242 247 256 260 260 256 248 246 249 248 240 229 224 229 225 211 207 207 207 212 217 217 215 216 213 202 190 186 183 178 178 178 178 184 194 193 168 165 203 223 229 234 242 250 256 264 270 268 265
172 174 172 171 172 174 180 192 204 213 219 226 236 245 252 256 258 259 259 260 263 265 266 263 260 248 240 240 236 228 227 225 223 223 224 224 223 220 214 205 193 184 179 179 183 190 195 196 195 190 183 187 207 225 229 231 239 246 252 264 279 287 283
174 180 181 176 173 175 180 190 205 216 219 224 234 244 253 257 256 254 255 258 264 270 272 269 265 260 254 251 245 240 241 243 244 243 243 245 246 242 235 228 217 204 192 184 185 190 194 196 196 196 199 210 223 234 241 245 252 257 261 269 280 289 290
179 184 186 184 180 183 194 202 208 214 218 222 228 233 242 250 253 253 253 254 257 262 266 270 270 266 262 262 260 255 252 253 256 257 257 257 258 258 256 252 246 242 234 219 209 204 204 207 211 214 218 223 229 237 246 255 263 269 273 277 283 287 288
188 189 191 193 193 198 211 215 212 214 217 219 220 224 232 240 247 251 254 257 259 260 262 267 271 272 270 267 267 264 260 258 258 259 260 262 262 262 262 260 257 254 253 250 244 237 231 232 237 240 243 244 245 247 251 258 266 274 277 278 281 284 285
195 197 202 209 217 224 227 227 225 221 217 216 219 223 229 238 246 252 255 260 263 266 267 269 271 274 275 274 274 272 269 266 264 262 261 261 261 263 267 269 267 263 262 263 262 259 255 253 254 257 261 263 265 265 264 265 268 273 277 280 284 284 283
202 205 215 231 243 242 237 236 238 237 234 234 237 245 254 257 255 254 255 259 263 268 272 273 273 274 276 278 280 278 275 274 274 273 271 266 264 261 259 262 268 270 268 268 268 269 269 267 265 265 266 268 271 274 276 276 277 277 279 281 283 282 280
215 220 230 238 239 238 239 241 245 250 252 252 261 285 296 289 268 254 253 255 260 267 274 280 283 284 285 287 290 290 288 285 281 278 276 275 273 269 262 256 256 260 265 268 268 270 272 273 273 272 272 272 272 273 274 276 279 280 281 282 281 279 278
234 244 246 238 233 237 247 250 249 249 249 252 271 295 301 292 265 249 248 254 261 269 278 287 292 296 297 298 298 297 295 292 288 284 281 279 279 279 275 270 265 263 264 268 269 270 272 275 275 273 271 271 272 273 273 274 275 277 278 278 276 275 274